{"data":{"norad_id":67324,"epoch":"2026-09-19T10:44:24.721440Z","epoch_age_seconds":166290,"freshness":"FRESH","line1":"1 67324U 26002V   26262.44750835  .00009152  00000+0  34164-3 0  9993","line2":"2 67324  43.0027 310.8497 0001560 285.9883  74.0797 15.27583571 40717","mean_motion":15.27583571,"eccentricity":0.000156,"inclination_deg":43.0027,"raan_deg":310.8497,"arg_perigee_deg":285.9883,"mean_anomaly_deg":74.0797,"bstar":0.00034164,"rev_number":4071,"period_min":94.266528348255,"perigee_km":481.96805983892,"apogee_km":484.10874656472,"semimajor_km":6861.1754032018,"source":"CELESTRAK","updated_at":"2026-09-20T09:00:43.507534Z"}}